x

Neah Bay, - 6nm North Of Cape Flattery, Wa (traffic Separation Lighted Buoy) (46087) Wave Buoy

9:20 - Mon 31st Aug 2015 All times are PDT. -7 hours from GMT.

  • Sig Wave height 7.2ft
  • Swell Direction
  • Peak Period 10s
  • Average Period 7s
  • Wind
    25mph, 29mph gusts
  • Sea Temp 56°f
  • Luft Temp 58°f
  • Sea Pressure 1008.5mb
  • Neah Bay, - 6nm North Of Cape Flattery, Wa     (traffic Separation Lighted Buoy)
  • Neah Bay, - 6nm North Of Cape Flattery, Wa     (traffic Separation Lighted Buoy)

More Historic Weather Station data

Upgrade to MSW Pro to gain access to the past 30 days of data for over 8000 Wavebouys and Weather Stations around the globe.

Join Pro

Comparision Forecast

View Surf forecast
   
Mo 08/31 9:20 7ft 10s 7s 25 29 mph 1008.5mb 56f 58f
8:50 7ft 11s 7s 25 29 mph 1008.8mb 56f 59f
8:20 7ft 11s 7s 25 29 mph 1008.6mb 56f 59f
7:50 7ft 10s 7s 25 31 mph 1008.7mb 56f 59f
7:20 7ft 10s 7s 25 29 mph 1008.8mb 56f 59f
6:50 6ft 11s 6s 25 27 mph 1009.3mb 55f 59f
6:20 7ft 9s 6s 22 27 mph 1009.5mb 55f 58f
5:50 7ft 11s 7s 22 27 mph 1009.7mb 55f 59f
5:20 8ft 11s 7s 20 25 mph 1009.9mb 54f 58f
4:50 7.5ft 10s 6s 20 25 mph 1010.1mb 54f 58f
3:50 8ft 9s 6s 20 25 mph 1010.6mb 53f 58f
3:20 8ft 9s 6s 25 29 mph 1010.4mb 53f 58f
2:50 8ft 9s 6s 22 27 mph 1010.4mb 53f 57f
2:20 8ft 9s 6s 22 29 mph 1010.6mb 53f 57f
1:50 7ft 8s 6s 20 25 mph 1010.5mb 53f 57f
1:20 7.5ft 9s 7s 20 25 mph 1010.5mb 53f 57f
12:50 7ft 8s 7s 20 22 mph 1010.6mb 53f 57f
12:20 7ft 10s 7s 22 25 mph 1010.4mb 54f 57f
11:50 7ft 10s 7s 22 25 mph 1010.5mb 54f 57f
11:20 6.5ft 10s 7s 18 22 mph 1010.6mb 54f 57f
10:50 6.5ft 8s 7s 16 20 mph 1010.7mb 54f 57f
10:20 6.5ft 8s 8s 16 18 mph 1010.9mb 54f 57f
9:50 6ft 10s 8s 16 20 mph 1010.8mb 54f 57f
9:20 6ft 9s 7s 20 25 mph 1010.7mb 55f 57f
8:50 6ft 9s 7s 18 20 mph 1010.7mb 56f 58f
8:20 6ft 10s 7s 16 18 mph 1010.8mb 56f 58f
7:50 6.5ft 10s 7s 16 20 mph 1010.5mb 56f 58f
7:20 6ft 8s 7s 20 22 mph 1010.1mb 57f 58f
6:50 6ft 11s 7s 18 20 mph 1010.1mb 57f 58f
6:20 6ft 8s 7s 16 18 mph 1010.1mb 56f 58f
5:50 6.5ft 9s 7s 11 16 mph 1010.2mb 56f 58f
5:20 7ft 8s 7s 13 16 mph 1010.2mb 56f 58f
4:50 6ft 10s 6s 13 16 mph 1010.2mb 55f 58f
4:20 7ft 9s 6s 13 16 mph 1010mb 55f 57f
3:50 7.5ft 7s 6s 16 20 mph 1009.9mb 55f 57f
3:20 7ft 8s 6s 16 18 mph 1010mb 55f 57f
2:50 7ft 8s 6s 18 20 mph 1009.8mb 54f 57f
2:20 7ft 7s 6s 20 22 mph 1009.8mb 54f 57f
1:50 7ft 7s 6s 22 25 mph 1009.8mb 54f 57f
1:20 7ft 8s 6s 25 31 mph 1009.6mb 54f 57f
12:50 7ft 7s 6s 20 25 mph 1009.9mb 54f 57f
12:20 6.5ft 8s 6s 29 34 mph 1009.7mb 54f 58f
So 08/30 11:50 6ft 8s 6s 31 40 mph 1009.5mb 54f 58f
11:20 6ft 10s 6s 25 29 mph 1010.3mb 54f 57f
10:50 5.5ft 8s 6s 29 36 mph 1010.5mb 54f 57f
10:20 5ft 11s 7s 27 31 mph 1010.9mb 55f 58f
9:50 5.5ft 12s 7s 25 29 mph 1011mb 55f 58f
9:20 5ft 9s 7s 25 29 mph 1011mb 56f 58f
8:50 5ft 10s 7s 20 25 mph 1011.6mb 56f 58f
8:20 5ft 11s 7s 20 25 mph 1011.7mb 56f 59f
7:50 4.5ft 11s 7s 18 20 mph 1012mb 56f 59f
7:20 5ft 11s 7s 16 18 mph 1012.3mb 56f 59f
6:50 5ft 12s 8s 16 18 mph 1012.6mb 56f 59f
6:20 5ft 11s 7s 16 18 mph 1012.8mb 55f 58f
5:50 5ft 10s 7s 16 18 mph 1012.6mb 55f 58f
5:20 6ft 12s 7s 16 18 mph 1012.6mb 55f 58f
4:50 6ft 16s 7s 18 20 mph 1012.5mb 55f 58f
4:20 5.5ft 12s 7s 18 20 mph 1012.4mb 55f 58f
3:50 6ft 11s 7s 18 20 mph 1012.2mb 55f 58f
3:20 6.5ft 12s 7s 18 22 mph 1012mb 55f 59f
2:50 6.5ft 9s 7s 18 22 mph 1012mb 54f 58f
2:20 6ft 11s 7s 18 20 mph 1011.9mb 54f 58f
1:50 7ft 11s 7s 18 20 mph 1011.6mb 53f 58f
1:20 7ft 11s 7s 13 16 mph 1011.4mb 53f 58f
12:50 6.5ft 11s 7s 16 18 mph 1011.1mb 53f 58f
12:20 7.5ft 11s 8s 13 16 mph 1011.1mb 53f 57f
11:50 8ft 9s 8s 13 16 mph 1010.8mb 53f 57f
11:20 7ft 9s 8s 9 13 mph 1010.6mb 53f 56f
10:50 7.5ft 8s 8s 11 13 mph 1010.5mb 53f 56f
10:20 7ft 12s 8s 9 13 mph 1010.3mb 53f 55f
9:50 7ft 10s 8s 11 13 mph 1009.8mb 54f 55f
9:20 6ft 10s 9s 11 13 mph 1009.4mb 54f 55f
8:50 5ft 13s 9s 9 11 mph 1009.1mb 54f 57f
8:20 5ft 10s 8s 9 11 mph 1008.8mb 54f 57f
7:50 5ft 13s 9s 7 9 mph 1008.5mb 54f 56f
7:20 5ft 14s 8s 9 11 mph 1008.1mb 54f 57f
6:50 5ft 10s 7s 9 13 mph 1007.7mb 54f 56f
6:20 5.5ft 10s 8s 13 18 mph 1007.2mb 54f 57f
5:50 6ft 9s 7s 13 16 mph 1006.9mb 53f 57f
5:20 7ft 10s 7s 13 16 mph 1006.6mb 53f 57f
4:50 6ft 10s 7s 13 16 mph 1006.2mb 53f 56f
4:20 6ft 9s 7s 18 22 mph 1005.9mb 54f 57f
3:50 7ft 9s 8s 13 18 mph 1005.8mb 54f 57f
3:20 7.5ft 9s 7s 13 16 mph 1005.5mb 54f 57f
2:50 6ft 8s 7s 4 7 mph 1005.4mb 54f 56f
2:20 6ft 10s 7s 9
mph
1005.1mb 54f 57f
1:50 6ft 8s 7s 9 11 mph 1005mb 53f 57f
1:20 6ft 11s 7s 9 11 mph 1005.1mb 53f 56f
12:50 6ft 11s 7s 9 11 mph 1005.3mb 53f 56f
12:20 6ft 11s 7s 9 11 mph 1005.2mb 53f 56f
Sa 08/29 11:50 6ft 8s 7s 11 13 mph 1005.1mb 53f 57f
11:20 6ft 9s 8s 13 18 mph 1005mb 53f 58f
10:50 6ft 10s 7s 11 13 mph 1004.9mb 54f 58f
10:20 5.5ft 8s 7s 11 13 mph 1004.9mb 54f 58f
9:50 5ft 9s 7s 11 13 mph 1005.2mb 54f 58f
9:20 5ft 11s 7s 9 11 mph 1005.2mb 54f 58f
8:50 5ft 10s 7s 13 16 mph 1004.8mb 54f 58f
8:20 5ft 10s 6s 16 18 mph 1004.6mb 54f 58f
7:50 6ft 10s 6s 20 22 mph 1004.1mb 55f 58f
7:20 5.5ft 10s 6s 20 25 mph 1003.8mb 55f 58f
6:50 6ft 11s 6s 25 29 mph 1003.4mb 55f 59f
6:20 6ft 11s 6s 25 31 mph 1003.1mb 55f 60f
5:50 5.5ft 11s 6s 27 34 mph 1002.7mb 55f 61f
5:20 6ft 11s 6s 27 34 mph 1002.4mb 55f 61f
4:50 6ft 11s 6s 27 36 mph 1001.6mb 55f 61f
4:20 7ft 10s 7s 31 43 mph 1001mb 54f 62f
3:50 7ft 11s 7s 31 45 mph 1001.4mb 53f 60f
3:20 8ft 10s 7s 11 16 mph 1002.3mb 53f 57f
2:50 8.5ft 10s 7s 13 18 mph 1002mb 52f 57f
2:20 8ft 10s 7s 11 13 mph 1001.9mb 52f 56f
1:50 10ft 10s 7s 18 22 mph 1000.4mb 53f 56f
1:20 10ft 9s 7s 22 25 mph 998.4mb 53f 56f
12:50 9ft 8s 6s 31 38 mph 996.1mb 53f 58f
12:20 8.5ft 8s 5s 31 36 mph 994.8mb 54f 58f
11:50 7ft 5s 5s 38 47 mph 993mb 54f 58f
11:20 4.5ft 7s 5s 47 63 mph 989.8mb 55f 61f
10:50 5ft 7s 6s 22 27 mph 990.7mb 55f 58f
10:20 5ft 7s 6s 18 29 mph 992.4mb 55f 61f
9:50 5ft 7s 6s 16 22 mph 993.6mb 55f 61f
9:20 4ft 6s 5s 20 27 mph 994.9mb 55f 63f
8:50 3.5ft 14s 4s 27 36 mph 995.9mb 55f 63f
8:20 2.5ft 16s 4s 29 38 mph 996.4mb 56f 64f
7:50 2.5ft 16s 5s 27 34 mph 996.2mb 56f 63f
7:20 2ft 13s 6s 22 31 mph 996.2mb 55f 60f
6:50 2.5ft 15s 6s 18 20 mph 995.6mb 56f 57f
6:20 2ft 15s 5s 13 18 mph 995.8mb 56f 58f
5:50 2ft 15s 7s 22 27 mph 996.7mb 56f 58f
5:20 2.5ft 16s 6s 20 22 mph 997.3mb 56f 58f
4:50 2.5ft 15s 5s 18 20 mph 998.2mb 56f 58f
4:20 2.5ft 16s 5s 18 22 mph 997.8mb 56f 57f
3:50 2.5ft 15s 6s 18 20 mph 997.9mb 56f 57f
3:20 2.5ft 15s 6s 18 20 mph 999.2mb 56f 57f
2:50 2.5ft 15s 6s 18 20 mph 999.8mb 56f 58f
2:20 2.5ft 15s 6s 20 22 mph 1000.4mb 56f 58f
1:50 2.5ft 15s 6s 18 20 mph 1001mb 55f 59f
1:20 3ft 15s 7s 16 18 mph 1001.4mb 55f 59f
12:50 2.5ft 16s 6s 13 16 mph 1002.9mb 55f 59f
12:20 2.5ft 14s 6s 11 13 mph 1003.3mb 57f 60f
Fr 08/28 11:50 3ft 15s 7s 11 13 mph 1004mb 57f 59f
11:20 3ft 14s 6s 9 11 mph 1005.3mb 58f 58f
10:50 3ft 14s 7s 9 11 mph 1005.9mb 58f 58f
10:20 2.5ft 14s 7s 13
mph
1006.6mb 58f 58f
9:50 3ft 14s 7s 11 13 mph 1007.3mb 58f 59f
9:20 2.5ft 15s 8s 7 9 mph 1007.6mb 59f 59f
8:50 3ft 14s 8s 9 11 mph 1007.6mb 59f 60f
8:20 2.5ft 14s 7s 9 11 mph 1008mb 58f 59f
7:50 2.5ft 15s 7s 4
mph
1008.6mb 58f 58f
7:20 3ft 15s 8s 2 4 mph 1009mb 58f 59f
6:50 2.5ft 15s 8s 2
mph
1009.6mb 59f 59f
6:20 2.5ft 15s 7s 4
mph
1010mb 59f 59f
5:50 2.5ft 15s 7s 4
mph
1010.4mb 59f 60f
5:20 2.5ft 14s 7s 2
mph
1011mb 60f 61f
4:50 3ft 15s 7s 2
mph
1011.4mb 60f 60f
4:20 2.5ft 16s 6s 2
mph
1012mb 59f 60f
3:50 3ft 15s 6s 2
mph
1012.4mb 58f 60f
3:20 3.5ft 16s 6s 2
mph
1012.8mb 58f 60f
2:50 3ft 16s 6s  -  2 mph 1013.3mb 58f 61f
2:20 3.5ft 16s 6s  -  2 mph 1013.4mb 58f 60f
1:50 3.5ft 16s 5s  -  2 mph 1013.4mb 57f 60f
1:20 3.5ft 7s 5s 2 4 mph 1013.6mb 57f 60f
12:50 4ft 15s 6s 4
mph
1013.6mb 57f 59f
12:20 4ft 7s 6s 2 4 mph 1013.7mb 57f 59f
11:50 4.5ft 15s 6s 4
mph
1013.7mb 57f 58f
11:20 4.5ft 7s 6s 2 4 mph 1013.6mb 57f 58f
10:50 4.5ft 7s 6s 7 11 mph 1013.7mb 56f 60f
10:20 4.5ft 7s 6s 7 11 mph 1013.6mb 56f 59f
9:50 4ft 15s 6s 9
mph
1013.6mb 56f 58f
9:20 3.5ft 14s 6s 9 11 mph 1013.7mb 56f 58f
8:50 3.5ft 15s 7s 11 13 mph 1013.6mb 56f 58f
8:20 3ft 14s 7s 4 7 mph 1013.6mb 56f 59f
7:50 2.5ft 14s 7s 4 7 mph 1013.6mb 57f 58f
7:20 2.5ft 15s 8s 7
mph
1013.5mb 57f 57f
6:50 2.5ft 14s 8s 7 9 mph 1013.7mb 56f 57f
6:20 2.5ft 15s 7s 7
mph
1013.7mb 56f 57f
5:50 2.5ft 15s 8s 7
mph
1013.6mb 56f 57f
5:20 2.5ft 14s 7s 9 11 mph 1013.8mb 56f 58f